Temp
46 37 34 39 42 42 41 39 38 45 49 47 46 51 55 57 54 55 57 58 61 63 65 67 68 68 67 67 67 67 66 66 66 63 62 62 63 67 68 69 70 70 68 67
42 36 41 45 46 43 40 37 35 43 49 48 46 49 54 54 54 56 59 61 62 64 65 65 65 65 65 65 66 66 68 67 68 67 64 66 68 68 68 69 69 68 67 68
38 41 45 42 41 39 39 36 36 38 47 48 46 44 50 55 57 58 61 60 60 61 62 63 65 62 61 60 61 63 64 66 66 66 66 66 67 65 64 65 66 68 69 69
40 45 42 40 38 40 35 43 45 43 41 35 45 32 47 50 52 52 50 50 51 52 55 59 62 60 60 58 60 60 60 61 61 62 63 64 63 60 61 62 63 65 67 67
37 40 39 37 39 42 37 44 43 42 39 38 40 35 40 49 47 49 50 51 50 50 52 53 53 55 55 58 59 58 57 57 58 59 60 59 60 63 62 62 63 64 65 66
40 47 44 43 44 44 47 43 42 40 38 29 35 36 34 42 46 47 49 51 52 51 51 51 52 53 52 53 54 54 55 55 56 56 57 57 57 57 56 56 56 57 57 58
38 39 44 47 40 43 43 39 26 23 24 27 36 35 39 47 48 49 49 50 50 51 50 50 51 50 50 49 52 53 53 53 54 54 54 54 54 55 54 54 53 54 55 55
29 25 39 45 41 39 38 38 26 18 22 27 35 30 38 47 50 50 50 50 51 50 51 50 50 51 51 50 51 52 52 52 52 52 52 52 53 52 52 52 52 52 52 52
33 32 42 44 45 43 38 34 39 29 24 24 31 38 45 47 47 48 48 49 48 49 50 49 50 51 50 51 51 52 52 51 52 52 51 51 52 52 51 51 51 50 51 53
36 31 40 42 44 44 41 44 32 28 16 19 28 32 33 39 43 45 46 46 48 50 50 51 51 51 51 50 50 50 51 51 51 51 51 50 50 50 50 49 49 49 49 50
38 37 36 40 36 34 37 34 37 36 29 25 25 28 43 43 44 44 46 48 48 49 50 50 50 50 50 50 50 50 50 50 49 50 49 48 48 48 48 48 48 48 48 49
37 35 30 30 39 41 40 36 37 27 26 29 30 30 48 45 46 47 47 49 49 50 51 51 52 51 50 50 50 50 49 49 49 49 48 48 48 47 46 46 46 47 46 47
38 30 25 23 34 39 36 39 37 35 32 28 24 29 46 45 45 47 47 47 48 48 49 50 50 50 50 50 50 50 50 50 50 49 48 47 47 46 46 46 46 46 46 46
41 31 28 19 26 34 29 33 35 34 23 27 29 32 40 42 43 43 44 45 47 48 49 49 49 49 49 50 50 50 50 50 49 49 48 47 47 47 47 46 46 45 46 45
38 21 27 31 33 33 31 31 32 30 32 25 31 30 38 41 41 42 43 45 46 46 47 48 48 49 48 49 49 50 50 49 48 47 47 47 47 46 45 45 45 44 43 42
36 18 24 19 31 30 27 31 32 32 32 32 32 31 41 42 43 41 44 44 44 45 46 46 47 48 49 49 50 50 49 48 47 46 46 46 45 44 43 43 43 42 41 41
28 18 11 10 25 21 15 27 31 32 35 34 29 36 40 40 42 41 42 43 44 45 45 45 45 46 46 46 49 48 50 49 46 46 46 44 44 42 42 42 41 40 40 40
24 16 10 10 10 4 27 35 36 33 34 37 37 38 39 40 41 41 43 42 43 44 44 44 44 45 45 45 45 46 46 46 45 44 44 44 42 41 40 40 39 39 38 38
34 27 11 9 -2 18 29 32 31 31 32 37 37 38 39 39 38 38 44 43 42 44 44 43 42 42 42 42 42 42 43 43 42 42 42 41 41 39 37 36 37 37 35 35
32 32 19 4 3 6 28 33 37 37 22 37 39 38 39 38 31 34 43 43 44 43 42 41 39 39 39 38 38 38 39 39 39 39 39 38 38 37 36 36 35 34 34 33
11 26 16 10 9 19 32 36 38 18 26 37 40 40 38 36 38 41 42 43 42 42 42 40 37 36 35 33 33 35 36 36 37 36 36 37 37 36 36 34 33 33 32 32
18 13 14 15 18 13 36 33 30 35 37 38 38 38 39 40 41 41 41 41 41 40 39 37 34 33 33 32 32 34 34 32 32 32 31 31 31 33 34 34 31 31 31 29
18 26 20 22 23 34 37 37 40 39 39 38 37 40 39 39 39 40 39 39 39 38 35 35 33 33 33 32 31 31 31 31 29 28 29 31 31 32 32 32 30 30 30 30
28 32 26 29 33 34 37 39 39 39 39 41 40 40 38 38 37 36 35 35 35 35 35 34 33 32 32 29 28 28 30 28 27 26 27 31 32 30 29 30 30 30 30 29
29 31 26 27 32 33 37 38 39 39 38 37 37 36 38 37 36 35 34 35 35 34 34 32 27 27 26 24 23 23 25 23 25 25 24 25 28 28 27 27 28 29 28 31
32 31 28 29 36 37 38 38 39 37 37 39 35 35 36 35 35 35 34 34 34 32 27 26 24 23 24 21 22 23 26 29 25 23 24 27 28 27 26 26 25 33 33 35
MSLP
1015.79 1015.97 1015.92 1015.84 1015.82 1015.21 1015.90 1015.29 1015.13 1014.22 1014.15 1014.34 1013.11 1012.04 1011.22 1010.63 1010.32 1010.29 1010.67 1011.00 1011.07 1011.27 1011.35 1011.81 1012.11 1012.41 1012.66 1012.92 1013.49 1013.90 1014.48 1014.88 1015.36 1015.94 1016.38 1016.64 1016.69 1016.78 1016.81 1016.78 1016.87 1016.99 1017.14 1017.30
1016.02 1016.12 1016.41 1015.98 1015.65 1016.00 1015.76 1015.66 1015.95 1015.04 1014.54 1014.65 1013.88 1012.36 1011.65 1011.16 1010.89 1010.55 1010.79 1011.13 1011.31 1011.31 1011.43 1011.70 1012.01 1012.33 1012.53 1012.91 1013.30 1013.81 1014.23 1014.59 1014.94 1015.42 1015.81 1016.10 1016.27 1016.29 1016.26 1016.28 1016.43 1016.59 1016.78 1016.78
1015.93 1016.51 1016.68 1016.42 1016.25 1015.92 1015.80 1016.46 1016.57 1016.00 1015.01 1014.38 1013.97 1013.20 1012.07 1011.58 1011.37 1011.13 1011.17 1011.62 1012.05 1011.96 1012.04 1012.17 1012.32 1012.65 1013.12 1013.58 1013.87 1014.17 1014.19 1014.46 1014.86 1015.01 1015.43 1015.80 1015.97 1016.18 1016.33 1016.41 1016.41 1016.23 1016.19 1016.31
1016.19 1016.56 1016.76 1016.67 1016.42 1016.09 1015.57 1016.92 1016.37 1015.56 1014.96 1015.26 1014.25 1014.19 1013.27 1012.86 1012.93 1013.06 1012.98 1013.30 1013.54 1013.62 1013.37 1013.26 1013.08 1013.25 1013.70 1014.09 1014.24 1014.79 1015.05 1015.09 1015.06 1015.07 1015.36 1015.54 1015.80 1016.21 1016.27 1016.23 1016.21 1016.10 1015.99 1016.07
1016.52 1016.48 1016.75 1016.64 1016.43 1016.41 1016.60 1016.95 1016.55 1016.45 1016.45 1016.05 1015.23 1015.39 1015.72 1014.39 1014.26 1014.41 1014.48 1014.27 1014.50 1014.83 1014.64 1014.51 1014.53 1014.40 1014.49 1014.47 1014.61 1014.74 1014.94 1015.20 1015.31 1015.50 1015.63 1015.81 1016.01 1016.06 1016.16 1016.31 1016.27 1016.24 1016.06 1016.08
1016.48 1016.15 1016.23 1016.14 1016.38 1016.47 1016.49 1016.71 1016.81 1017.40 1017.39 1017.79 1017.30 1016.60 1016.61 1015.90 1015.39 1015.27 1015.18 1014.98 1015.12 1015.31 1015.27 1015.44 1015.36 1015.28 1015.39 1015.28 1015.28 1015.32 1015.52 1015.71 1015.67 1015.72 1015.87 1015.98 1016.14 1016.39 1016.61 1016.70 1016.69 1016.59 1016.42 1016.40
1017.01 1016.53 1016.21 1015.88 1016.20 1016.51 1016.80 1016.38 1017.54 1018.54 1018.31 1018.25 1017.89 1017.11 1016.75 1016.54 1016.18 1015.96 1015.66 1015.53 1015.69 1015.88 1015.88 1015.71 1015.79 1015.79 1015.88 1015.88 1015.81 1015.79 1015.89 1016.06 1016.08 1016.16 1016.20 1016.28 1016.42 1016.55 1016.73 1016.88 1016.96 1016.99 1016.88 1016.91
1018.01 1017.54 1016.75 1016.14 1016.09 1016.21 1016.46 1016.64 1017.35 1018.56 1019.27 1019.06 1018.23 1017.53 1017.71 1017.03 1016.50 1016.35 1016.14 1015.98 1015.98 1016.15 1016.21 1016.22 1016.16 1016.12 1016.15 1016.16 1016.14 1016.19 1016.29 1016.39 1016.46 1016.54 1016.71 1016.77 1016.82 1016.90 1017.01 1017.06 1017.11 1017.26 1017.33 1017.37
1018.70 1017.96 1017.08 1016.63 1016.29 1016.25 1016.40 1016.87 1017.24 1018.59 1019.62 1019.02 1017.99 1017.76 1017.50 1017.23 1016.76 1016.53 1016.22 1016.28 1016.43 1016.35 1016.36 1016.44 1016.44 1016.44 1016.49 1016.57 1016.44 1016.46 1016.54 1016.67 1016.80 1016.90 1017.01 1017.10 1017.27 1017.33 1017.47 1017.48 1017.54 1017.61 1017.66 1017.65
1019.70 1018.64 1017.64 1016.99 1016.60 1016.29 1016.19 1016.69 1017.44 1018.42 1019.30 1019.07 1018.20 1017.81 1017.86 1017.48 1016.96 1016.89 1016.72 1016.61 1016.43 1016.30 1016.27 1016.41 1016.50 1016.45 1016.57 1016.70 1016.70 1016.72 1016.84 1016.88 1017.07 1017.10 1017.47 1017.42 1017.44 1017.55 1017.81 1017.91 1017.98 1018.03 1018.04 1017.97
1020.47 1019.49 1018.57 1017.69 1017.55 1017.12 1016.85 1016.89 1017.40 1018.20 1019.17 1019.21 1018.94 1018.66 1017.65 1017.14 1017.03 1017.08 1016.98 1016.78 1016.67 1016.54 1016.46 1016.53 1016.58 1016.57 1016.59 1016.70 1016.87 1016.76 1017.03 1017.15 1017.33 1017.51 1017.59 1017.74 1017.80 1017.90 1018.05 1018.31 1018.50 1018.62 1018.49 1018.45
1021.16 1020.84 1019.91 1019.12 1018.40 1017.83 1017.58 1017.63 1018.02 1018.86 1019.81 1019.61 1019.11 1018.62 1017.46 1017.25 1017.17 1017.06 1017.12 1016.99 1016.79 1016.59 1016.44 1016.42 1016.44 1016.58 1016.68 1016.82 1016.90 1016.84 1016.93 1017.29 1017.49 1017.57 1017.82 1017.95 1018.08 1018.10 1018.23 1018.34 1018.39 1018.70 1018.70 1018.76
1021.43 1021.75 1021.52 1020.73 1019.80 1018.86 1018.72 1018.63 1018.92 1019.31 1019.89 1020.00 1019.58 1018.66 1017.59 1017.47 1017.28 1017.35 1017.41 1017.24 1017.10 1016.92 1016.78 1016.75 1016.72 1016.70 1016.71 1016.79 1016.77 1016.96 1017.02 1017.11 1017.28 1017.63 1017.71 1017.89 1018.10 1018.27 1018.38 1018.39 1018.67 1018.90 1018.95 1019.09
1021.70 1022.50 1022.69 1022.36 1021.64 1020.87 1020.28 1020.09 1019.92 1019.94 1020.70 1020.43 1019.89 1018.99 1018.19 1017.95 1017.83 1017.70 1017.81 1017.60 1017.38 1017.13 1017.08 1017.02 1016.86 1016.77 1016.73 1016.83 1016.83 1016.66 1016.79 1016.99 1017.20 1017.45 1017.70 1017.82 1017.98 1018.17 1018.35 1018.61 1018.98 1019.19 1019.31 1019.53
1022.19 1023.35 1023.77 1023.58 1022.92 1022.11 1021.35 1020.72 1020.57 1020.62 1020.53 1020.72 1020.22 1019.64 1018.76 1018.43 1018.20 1017.94 1018.01 1017.71 1017.61 1017.65 1017.60 1017.47 1017.31 1016.96 1016.77 1016.80 1016.87 1016.94 1016.69 1016.62 1016.83 1017.15 1017.60 1017.77 1017.87 1018.20 1018.43 1018.75 1019.07 1019.24 1019.45 1019.82
1023.10 1024.48 1025.19 1025.39 1024.44 1023.75 1022.63 1021.41 1020.86 1020.73 1020.59 1020.59 1020.36 1020.06 1018.93 1018.55 1018.32 1018.31 1018.36 1018.16 1018.22 1018.33 1018.28 1018.14 1017.85 1017.46 1017.20 1017.01 1016.83 1016.73 1016.68 1016.73 1016.82 1017.04 1017.31 1017.58 1017.86 1018.17 1018.48 1018.70 1019.07 1019.49 1019.86 1020.05
1024.32 1025.63 1027.08 1027.55 1026.38 1025.14 1023.90 1021.56 1020.83 1020.30 1019.94 1019.94 1019.90 1019.36 1019.08 1018.82 1018.54 1018.43 1018.47 1018.57 1018.72 1018.74 1018.63 1018.46 1018.20 1017.83 1017.52 1017.39 1017.11 1016.89 1016.50 1016.52 1016.93 1017.10 1017.22 1017.52 1017.60 1017.91 1018.19 1018.46 1018.98 1019.52 1020.00 1020.34
1025.24 1026.52 1027.67 1029.04 1028.36 1026.66 1023.02 1021.40 1020.61 1020.40 1020.06 1019.60 1019.31 1018.92 1018.82 1018.64 1018.52 1018.52 1018.53 1018.65 1018.82 1018.85 1018.77 1018.69 1018.44 1018.13 1017.82 1017.53 1017.15 1016.88 1016.61 1016.47 1016.51 1016.68 1016.92 1017.37 1017.79 1018.06 1018.56 1018.93 1019.06 1019.14 1019.69 1020.34
1025.44 1026.74 1028.68 1029.68 1029.54 1027.33 1023.10 1021.36 1020.47 1020.20 1019.81 1019.15 1019.10 1018.71 1018.59 1018.62 1018.58 1018.79 1018.69 1018.77 1018.83 1018.79 1018.73 1018.79 1018.68 1018.55 1018.18 1017.92 1017.58 1017.18 1016.64 1016.47 1016.54 1016.64 1016.85 1017.09 1017.37 1017.99 1018.66 1019.01 1019.04 1019.00 1020.24 1020.35
1026.14 1026.58 1028.20 1029.89 1029.50 1026.91 1023.34 1021.36 1020.26 1020.11 1019.82 1018.84 1018.42 1018.55 1018.76 1018.87 1019.39 1019.29 1018.94 1018.85 1018.71 1018.64 1018.65 1018.62 1018.71 1018.62 1018.38 1018.10 1017.70 1017.39 1017.04 1016.85 1016.89 1016.94 1017.26 1017.62 1017.87 1018.10 1018.74 1018.99 1019.40 1019.71 1020.81 1020.62
1027.06 1027.31 1027.87 1028.53 1027.90 1025.04 1022.47 1021.27 1020.43 1020.65 1020.05 1018.78 1018.61 1018.64 1018.88 1019.32 1019.44 1019.10 1019.06 1018.94 1018.87 1018.74 1018.60 1018.65 1018.82 1018.96 1018.81 1018.44 1018.08 1017.75 1017.47 1017.28 1017.06 1017.27 1017.31 1017.92 1018.54 1018.94 1019.08 1019.59 1019.58 1020.48 1021.02 1021.26
1026.23 1026.59 1027.01 1027.29 1026.31 1024.00 1021.27 1021.09 1020.66 1019.69 1019.17 1018.97 1018.92 1018.89 1018.99 1019.04 1019.09 1019.18 1019.21 1019.23 1019.05 1019.06 1019.04 1019.08 1019.21 1019.35 1019.03 1018.77 1018.49 1018.20 1018.06 1017.90 1017.79 1017.94 1018.39 1018.56 1019.19 1019.72 1019.66 1019.65 1020.17 1020.96 1021.01 1021.51
1025.06 1024.12 1024.35 1024.28 1022.93 1021.18 1020.50 1019.91 1019.33 1019.34 1019.34 1019.15 1019.16 1019.02 1019.05 1019.24 1019.27 1019.29 1019.37 1019.40 1019.18 1019.24 1019.33 1019.39 1019.47 1019.47 1019.25 1019.06 1018.70 1018.86 1018.70 1018.49 1018.63 1018.99 1019.07 1019.22 1018.98 1019.82 1020.68 1020.58 1020.57 1020.94 1021.60 1021.67
1023.55 1022.87 1023.02 1022.85 1020.79 1020.65 1020.09 1019.55 1019.29 1019.18 1019.31 1019.00 1018.95 1018.93 1019.10 1019.26 1019.21 1019.33 1019.37 1019.40 1019.37 1019.27 1019.31 1019.30 1019.55 1019.75 1019.79 1019.69 1019.30 1018.93 1019.06 1018.98 1019.17 1019.54 1019.65 1019.76 1019.00 1019.77 1020.52 1020.31 1020.88 1021.21 1021.22 1021.49
1022.55 1022.19 1021.95 1021.41 1020.23 1020.30 1019.49 1019.14 1019.01 1018.80 1018.83 1018.90 1018.76 1018.86 1018.93 1019.06 1019.10 1019.09 1019.13 1019.21 1019.02 1019.09 1019.13 1019.28 1019.72 1019.92 1019.93 1019.76 1019.93 1019.69 1018.88 1019.44 1019.70 1019.70 1019.98 1019.94 1020.07 1020.34 1020.61 1021.10 1021.07 1020.82 1020.76 1020.93
1021.31 1020.78 1020.92 1019.82 1019.44 1019.45 1018.81 1018.26 1018.40 1018.66 1018.65 1018.55 1018.64 1018.62 1018.49 1018.69 1018.84 1018.71 1018.91 1018.69 1018.80 1018.76 1019.07 1019.49 1019.73 1019.87 1019.79 1019.87 1019.81 1019.85 1019.59 1018.74 1019.68 1020.51 1020.60 1020.21 1019.96 1020.34 1020.70 1020.94 1020.94 1020.91 1020.80 1020.82
Wind_Speed
4 5 5 11 11 12 8 8 4 3 6 5 7 7 6 5 0 3 1 7 9 10 9 13 11 9 8 9 9 9 8 7 6 3 4 3 5 5 4 5 7 7 7 7
2 8 4 9 12 13 16 13 7 7 4 5 1 9 4 3 4 4 4 4 6 7 7 7 8 8 8 8 8 8 9 9 7 6 4 4 4 2 3 4 5 6 6 6
5 3 3 6 9 11 14 8 3 1 4 2 3 2 6 3 3 2 6 5 7 2 6 5 6 5 5 4 5 4 3 5 4 7 4 2 2 2 1 1 2 6 7 6
1 5 3 4 4 7 9 3 4 6 5 2 2 0 6 7 6 10 9 9 8 10 8 6 4 4 4 6 6 4 3 4 3 5 3 4 4 4 3 3 3 4 5 5
1 7 4 2 1 5 6 5 5 5 3 1 5 7 7 6 7 7 7 8 8 6 7 8 8 6 6 5 6 5 6 6 5 4 4 3 2 1 1 1 2 2 2 2
0 1 4 3 5 3 9 4 5 4 3 3 8 3 2 3 0 2 4 7 7 8 7 5 4 5 4 5 5 5 5 3 3 3 3 4 4 3 2 0 1 2 2 2
1 2 2 4 4 2 2 2 3 4 3 2 5 3 1 4 6 4 5 6 5 5 6 6 5 3 2 2 2 3 5 2 1 3 3 3 3 2 2 1 0 0 1 2
2 5 3 1 0 4 4 3 4 4 3 3 4 5 4 2 4 4 4 4 5 4 3 3 3 2 2 2 2 1 3 3 3 3 3 3 4 3 3 2 2 3 3 2
4 2 1 3 2 2 4 1 2 6 2 3 2 6 7 3 5 6 8 6 5 4 2 1 2 2 1 1 1 3 4 3 3 4 4 4 4 5 4 4 4 3 3 3
5 1 2 2 3 3 1 5 4 3 3 0 2 3 5 1 5 4 7 7 7 5 2 1 2 2 2 2 2 3 3 4 3 4 3 4 4 4 4 4 5 5 3 3
5 4 2 2 3 1 3 2 4 4 3 3 3 1 4 5 4 6 5 4 4 4 3 3 3 3 4 3 4 4 4 3 3 4 3 4 3 4 5 5 4 3 4 4
2 4 2 1 2 2 1 1 2 4 2 0 2 2 5 5 5 6 6 7 5 4 4 3 3 3 4 4 3 3 4 4 4 3 4 4 4 4 5 5 5 4 5 4
3 0 1 7 6 5 4 4 3 5 3 3 5 4 4 4 7 6 7 7 7 5 6 4 4 4 4 4 3 4 4 4 5 4 5 5 4 4 5 5 5 5 5 5
4 2 2 5 2 2 1 2 3 4 3 1 3 3 1 7 8 6 5 4 6 8 7 7 6 4 4 5 5 5 5 5 5 4 4 4 4 4 4 5 5 5 5 5
2 4 2 4 6 3 1 1 1 3 4 4 4 1 6 7 7 5 4 7 8 8 9 9 8 7 5 5 4 5 5 6 6 6 5 5 5 5 5 5 5 5 5 5
3 0 3 4 6 7 4 6 4 3 3 4 5 7 7 7 5 5 5 7 7 7 7 8 8 8 8 7 6 6 6 6 5 6 6 6 6 6 6 6 5 5 5 5
3 4 4 4 5 5 7 5 5 4 4 4 5 6 3 4 4 2 5 5 5 6 6 7 8 7 7 7 7 7 7 5 6 6 6 6 7 7 7 7 7 6 5 5
3 3 3 3 5 3 9 5 5 5 4 6 6 5 1 2 3 3 5 4 5 5 5 7 6 7 7 7 8 7 6 6 7 7 7 7 6 6 5 5 5 6 5 6
3 4 2 5 3 7 11 3 4 5 6 3 5 7 1 1 3 1 4 3 3 5 5 5 4 5 7 7 7 8 7 6 5 6 6 6 6 6 6 5 6 7 3 5
3 3 5 4 5 6 4 2 3 4 5 5 4 4 4 3 3 5 5 5 8 7 4 5 6 5 6 7 7 7 7 5 6 3 3 3 4 6 6 6 5 4 1 4
3 3 5 3 3 8 10 6 3 7 8 2 4 4 4 2 6 5 6 7 6 6 8 7 7 6 6 6 6 7 6 6 4 4 6 4 2 3 6 5 4 4 5 5
7 7 5 3 3 8 5 4 5 7 3 2 3 2 4 5 7 6 7 8 8 8 8 8 6 6 6 5 5 5 4 4 5 6 6 7 6 4 1 7 5 5 6 6
2 7 6 9 8 6 6 6 8 2 4 4 3 6 3 6 6 7 6 7 7 7 7 4 4 6 5 4 3 3 2 4 5 4 3 3 7 6 1 1 6 5 4 5
4 4 2 2 6 8 7 7 6 5 7 8 7 8 4 7 6 8 7 7 7 5 6 3 3 4 5 5 3 4 2 3 5 4 2 3 6 5 2 3 2 5 5 4
6 6 5 6 6 6 11 9 10 11 7 8 8 6 7 7 8 8 6 8 8 6 4 4 4 4 5 2 3 5 7 3 3 6 4 2 3 4 4 1 4 3 2 5
6 8 5 9 6 5 9 5 4 6 7 8 7 6 6 8 9 7 7 8 6 7 3 4 5 4 5 4 5 4 5 7 7 1 2 2 5 4 3 4 2 3 4 3
Wind_Direction
18 28 71 104 113 105 93 89 63 114 105 209 279 286 266 290 334 129 162 176 169 174 182 181 191 199 176 168 167 167 161 174 159 159 172 182 198 204 205 208 216 213 211 210
23 50 357 53 101 86 88 74 22 336 14 201 244 287 286 199 251 203 150 142 170 144 155 166 162 167 161 163 169 164 179 181 184 182 179 180 185 195 194 200 216 221 224 216
53 118 111 93 98 86 70 65 37 189 230 264 129 278 285 255 228 239 97 84 40 34 138 126 118 122 137 97 87 102 129 175 188 179 165 169 108 76 83 211 232 229 222 221
61 159 149 98 85 124 69 306 346 19 65 194 131 341 10 341 45 31 16 52 40 25 18 33 44 153 159 128 107 97 77 91 63 68 131 155 167 171 205 218 239 247 232 229
290 174 172 8 39 274 129 237 30 21 78 339 26 95 330 342 34 27 24 31 35 37 36 23 26 41 52 39 61 80 82 64 52 54 89 118 143 128 78 89 63 8 346 356
53 224 154 192 155 292 158 167 97 43 70 81 313 45 307 291 102 68 27 28 15 5 23 49 34 53 55 43 57 68 80 52 47 67 79 108 135 143 142 3 338 312 336 7
21 16 12 84 85 327 297 122 55 31 46 154 201 74 296 17 26 29 9 13 6 22 12 17 34 72 74 75 79 103 134 130 100 94 86 92 112 125 149 159 173 20 15 38
125 343 352 288 150 195 212 165 136 142 159 183 167 169 89 82 44 67 75 56 61 64 48 51 42 52 73 123 126 94 134 124 115 109 92 74 78 97 92 87 86 79 82 76
358 52 352 33 331 100 220 120 153 109 28 76 223 111 66 58 72 28 32 43 46 52 53 111 87 101 98 76 106 153 144 122 104 101 104 84 70 77 79 71 81 86 86 84
326 234 359 292 333 337 156 166 75 4 95 80 304 60 125 179 72 50 44 33 10 9 36 228 210 161 129 164 146 110 126 133 127 105 108 104 101 96 87 80 85 87 86 84
333 342 337 68 15 281 31 0 58 104 98 135 127 293 190 150 115 71 53 54 32 5 339 286 251 200 185 187 187 154 145 134 130 144 121 120 107 105 104 100 92 92 87 87
18 340 341 333 279 317 277 69 149 120 220 90 101 197 196 147 87 55 26 11 9 5 342 321 272 225 204 203 206 189 172 171 176 149 133 127 130 122 117 120 118 110 100 83
129 98 334 343 350 356 16 29 96 97 64 198 135 238 170 71 26 23 28 6 353 3 7 334 312 279 276 262 211 200 191 183 164 165 159 158 161 149 136 123 118 117 108 99
121 54 130 178 242 233 183 59 6 96 103 208 224 300 292 334 346 357 347 16 11 8 3 351 337 302 279 270 249 208 198 184 175 174 178 166 170 155 136 122 117 114 111 103
89 120 40 345 344 327 282 226 167 196 205 139 213 239 298 312 302 306 10 20 20 16 8 357 348 332 318 292 265 262 230 191 183 178 184 193 167 154 140 134 123 111 104 107
36 82 64 348 357 359 308 280 267 233 214 222 237 283 240 268 302 11 28 22 26 18 3 348 344 347 340 320 280 255 244 230 191 188 196 182 169 164 159 142 142 128 127 127
73 111 65 282 342 4 340 246 215 218 202 182 216 223 292 309 337 330 7 67 42 357 343 338 331 328 333 331 317 280 249 205 200 206 199 192 176 170 170 155 154 150 147 136
110 80 95 220 23 24 245 299 217 218 270 259 272 260 335 246 327 35 81 56 0 327 323 324 324 322 323 321 318 310 285 225 206 201 190 181 174 164 152 156 162 142 144 146
151 114 50 115 166 285 307 340 152 164 278 201 229 274 297 6 94 327 72 22 314 298 298 278 296 298 313 317 319 319 304 259 231 223 210 184 165 160 166 179 171 130 149 114
70 124 113 57 121 218 249 286 98 79 295 275 155 128 138 72 15 261 308 335 324 305 270 310 333 323 327 323 325 326 311 282 259 230 179 162 169 158 174 159 153 83 88 112
66 172 182 184 215 288 249 237 44 84 244 224 135 150 150 184 207 251 306 321 306 304 323 341 342 330 316 322 330 322 318 292 267 151 128 133 130 134 132 130 88 119 134 110
161 143 199 122 184 272 204 76 171 218 258 206 215 219 219 233 270 265 293 294 303 306 320 330 330 324 320 336 341 335 2 358 69 89 81 80 51 14 169 140 111 147 126 124
215 186 178 177 209 228 221 206 235 187 243 277 268 267 253 269 256 267 269 286 286 298 299 298 309 318 322 336 25 57 17 85 87 76 95 122 107 101 357 143 120 113 145 140
249 199 194 103 241 235 254 279 263 247 241 249 247 254 243 255 272 270 274 277 277 277 280 256 287 292 304 331 338 123 110 120 92 80 92 241 120 106 138 82 149 167 155 148
200 137 180 258 282 282 271 247 256 268 254 260 269 231 238 238 259 246 260 268 265 268 253 222 222 245 261 267 292 286 142 105 110 134 157 130 122 147 121 136 195 161 158 167
185 194 188 248 198 187 257 227 225 244 252 257 250 269 236 221 241 257 260 254 252 264 233 227 224 209 259 251 221 227 274 148 141 122 314 224 164 158 155 156 111 115 143 143